This is the latest recevied weather packets stored in our database for station/object HK4CL-10. If no packets are shown the sender has not sent any weather packets the latest 10 day(s).
| Time | Temp. | Humidity | Pressure | Rain* | Wind** | Luminosity | Snow |
|---|---|---|---|---|---|---|---|
| 1787551354 | 16.67° C | 100% | 820.8 hPa | - | - | - | - |
| 1787550454 | 16.67° C | 100% | 820.8 hPa | - | - | - | - |
| 1787549553 | 16.67° C | 100% | 820.9 hPa | - | - | - | - |
| 1787548653 | 16.67° C | 100% | 821 hPa | - | - | - | - |
| 1787547753 | 16.67° C | 100% | 821.3 hPa | - | - | - | - |
| 1787546853 | 16.67° C | 100% | 821.5 hPa | - | - | - | - |
| 1787545953 | 16.67° C | 100% | 821.6 hPa | - | - | - | - |
| 1787545052 | 17.22° C | 100% | 821.7 hPa | - | - | - | - |
| 1787544152 | 16.67° C | 100% | 822 hPa | - | - | - | - |
| 1787543252 | 16.11° C | 100% | 822.1 hPa | - | - | - | - |
| 1787542352 | 16.11° C | 100% | 821.9 hPa | - | - | - | - |
| 1787541452 | 16.11° C | 100% | 822 hPa | - | - | - | - |
| 1787540551 | 16.11° C | 100% | 821.8 hPa | - | - | - | - |
| 1787539651 | 15.56° C | 100% | 821.6 hPa | - | - | - | - |
| 1787538751 | 15.56° C | 100% | 821.2 hPa | - | - | - | - |
| 1787537850 | 15.56° C | 100% | 821.1 hPa | - | - | - | - |
| 1787536955 | 16.11° C | 100% | 820.9 hPa | - | - | - | - |
| 1787536055 | 16.11° C | 100% | 820.9 hPa | - | - | - | - |
| 1787535155 | 16.11° C | 100% | 820.9 hPa | - | - | - | - |
| 1787534255 | 16.11° C | 100% | 820.7 hPa | - | - | - | - |
| 1787533354 | 16.11° C | 100% | 820.5 hPa | - | - | - | - |
| 1787532454 | 16.11° C | 100% | 820.5 hPa | - | - | - | - |
| 1787531554 | 16.11° C | 100% | 820.4 hPa | - | - | - | - |
| 1787530654 | 16.67° C | 100% | 820.3 hPa | - | - | - | - |
| 1787529754 | 16.67° C | 100% | 820.1 hPa | - | - | - | - |
* Rain since midnight (hover to see other rain measurements)
** Current wind speed in m/s (hover to see current wind gust speed)